Terminal Aerodrome Forecast
Issued by NWS Medford, OR

Home | Current Version | Previous Version | Text Only | Print | Product List | Glossary On
Versions: 1 2 3 4 5 6 7 8 9 10 11 12 13 14 15 16 17 18 19 20 21 22 23 24 25
000
FTUS46 KMFR 261120
TAFMFR
TAF
KMFR 261120Z 2612/2712 VRB03KT P6SM SCT005 BKN040
     FM261900 VRB03KT P6SM -SHRASN SCT020 OVC040
     FM270400 VRB03KT 5SM -SHSN OVC020=

USA.gov is the U.S. government's official web portal to all federal, state and local government web resources and services.